AIC4EM VIDP-VECC

Flight info

Callsign AIC4EM
Flight time 1h 47m
Altitude 39000
Route ALI6E ALI G452 LKN W45 PPT W52 SEGMO SEGMO2A
Aircraft A20N/M-SDE2E3FGHIRWXY/LB1

Departure

Time 2026-05-05 03:47
Airport Indira Gandhi International Airport (VIDP)

Arrival

Time 2026-05-05 05:35
Airport Netaji Subhash Chandra Bose International Airport (VECC)
Time Latitude Longitude Altitude Speed Heading
2026-05-05 03:22 28.54980 77.08870 751 ft 0 kts 62°
2026-05-05 03:37 28.54978 77.08866 751 ft 3 kts 62°
2026-05-05 03:37 28.54970 77.08847 746 ft 3 kts 78°
2026-05-05 03:37 28.54968 77.08825 747 ft 3 kts 104°
2026-05-05 03:37 28.54975 77.08805 748 ft 3 kts 125°
2026-05-05 03:38 28.54987 77.08789 746 ft 2 kts 150°
2026-05-05 03:39 28.54968 77.08800 747 ft 7 kts 158°
2026-05-05 03:39 28.54905 77.08765 751 ft 15 kts 243°
2026-05-05 03:39 28.54906 77.08721 749 ft 5 kts 281°
2026-05-05 03:40 28.54923 77.08647 750 ft 15 kts 292°
2026-05-05 03:40 28.54957 77.08514 748 ft 21 kts 285°
2026-05-05 03:40 28.55005 77.08321 749 ft 29 kts 285°
2026-05-05 03:40 28.55037 77.08165 751 ft 16 kts 282°
2026-05-05 03:41 28.55072 77.08008 747 ft 24 kts 285°
2026-05-05 03:41 28.55119 77.07811 749 ft 19 kts 285°
2026-05-05 03:41 28.55140 77.07720 750 ft 4 kts 285°
2026-05-05 03:41 28.55153 77.07651 751 ft 14 kts 283°
2026-05-05 03:42 28.55188 77.07513 748 ft 21 kts 286°
2026-05-05 03:42 28.55235 77.07331 751 ft 24 kts 286°
2026-05-05 03:42 28.55270 77.07180 750 ft 23 kts 284°
2026-05-05 03:42 28.55293 77.07063 750 ft 20 kts 282°
2026-05-05 03:43 28.55285 77.06914 750 ft 19 kts 222°
2026-05-05 03:43 28.55149 77.06868 746 ft 24 kts 193°
2026-05-05 03:43 28.55112 77.06859 748 ft 0 kts 192°
2026-05-05 03:46 28.55109 77.06858 748 ft 3 kts 192°
2026-05-05 03:46 28.55050 77.06844 745 ft 14 kts 192°
2026-05-05 03:46 28.55017 77.06838 747 ft 6 kts 175°
2026-05-05 03:46 28.55005 77.06897 749 ft 29 kts 101°
2026-05-05 03:47 28.54887 77.07385 752 ft 97 kts 101°
2026-05-05 03:47 28.54687 77.08339 752 ft 148 kts 104°
2026-05-05 03:47 28.54502 77.09464 1365 ft 136 kts 96°
2026-05-05 03:47 28.54360 77.10511 1932 ft 138 kts 101°
2026-05-05 03:48 28.54144 77.11611 2472 ft 148 kts 103°
2026-05-05 03:48 28.53899 77.12839 2883 ft 169 kts 104°
2026-05-05 03:48 28.53622 77.14215 3401 ft 187 kts 104°
2026-05-05 03:48 28.53317 77.15711 3901 ft 206 kts 103°
2026-05-05 03:49 28.52976 77.17403 4285 ft 230 kts 103°
2026-05-05 03:49 28.52605 77.19235 4753 ft 240 kts 103°
2026-05-05 03:49 28.51959 77.20978 5308 ft 244 kts 128°
2026-05-05 03:49 28.50621 77.22156 5929 ft 249 kts 158°
2026-05-05 03:50 28.48900 77.22451 6500 ft 260 kts 186°
2026-05-05 03:50 28.47102 77.21958 6872 ft 271 kts 198°
2026-05-05 03:50 28.45336 77.21198 7075 ft 270 kts 201°
2026-05-05 03:50 28.43576 77.20428 7252 ft 272 kts 200°
2026-05-05 03:51 28.41790 77.19711 7437 ft 272 kts 198°
2026-05-05 03:51 28.39992 77.19045 7629 ft 272 kts 197°
2026-05-05 03:51 28.38190 77.18412 7820 ft 272 kts 197°
2026-05-05 03:51 28.36366 77.17785 8014 ft 273 kts 197°
2026-05-05 03:52 28.34577 77.17172 8207 ft 275 kts 197°
2026-05-05 03:52 28.32713 77.16533 8400 ft 275 kts 197°
2026-05-05 03:52 28.30882 77.15904 8586 ft 275 kts 197°
2026-05-05 03:52 28.29046 77.15296 8790 ft 276 kts 193°
2026-05-05 03:53 28.27150 77.14964 8986 ft 277 kts 186°
2026-05-05 03:53 28.25247 77.14708 9184 ft 278 kts 187°
2026-05-05 03:53 28.23335 77.14439 9383 ft 278 kts 187°
2026-05-05 03:53 28.21390 77.14160 9575 ft 279 kts 187°
2026-05-05 03:54 28.19458 77.13882 9790 ft 280 kts 187°
2026-05-05 03:54 28.17557 77.13609 9967 ft 280 kts 187°
2026-05-05 03:54 28.15588 77.13327 10160 ft 281 kts 187°
2026-05-05 03:54 28.13657 77.13051 10347 ft 287 kts 187°
2026-05-05 03:55 28.11626 77.12761 10542 ft 305 kts 187°
2026-05-05 03:55 28.09439 77.12496 10753 ft 331 kts 181°
2026-05-05 03:55 28.07069 77.12843 10941 ft 355 kts 163°
2026-05-05 03:55 28.04780 77.14081 11144 ft 377 kts 145°
2026-05-05 03:56 28.02847 77.16175 11379 ft 396 kts 128°
2026-05-05 03:56 28.01439 77.18917 11691 ft 411 kts 115°
2026-05-05 03:56 28.00293 77.21921 12016 ft 419 kts 112°
2026-05-05 03:56 27.99196 77.24982 12328 ft 422 kts 112°
2026-05-05 03:57 27.98074 77.28067 12663 ft 424 kts 113°
2026-05-05 03:57 27.96923 77.31137 12987 ft 426 kts 114°
2026-05-05 03:57 27.95737 77.34231 13341 ft 429 kts 114°
2026-05-05 03:57 27.94534 77.37334 13728 ft 431 kts 114°
2026-05-05 03:58 27.93319 77.40450 14132 ft 436 kts 114°
2026-05-05 03:58 27.92092 77.43592 14549 ft 441 kts 114°
2026-05-05 03:58 27.90898 77.46835 14981 ft 446 kts 111°
2026-05-05 03:58 27.89825 77.50135 15409 ft 449 kts 110°
2026-05-05 03:59 27.88745 77.53445 15856 ft 454 kts 110°
2026-05-05 03:59 27.87640 77.56820 16303 ft 458 kts 111°
2026-05-05 03:59 27.86530 77.60201 16749 ft 461 kts 111°
2026-05-05 03:59 27.85410 77.63608 17210 ft 465 kts 111°
2026-05-05 04:00 27.84272 77.67062 17677 ft 470 kts 111°
2026-05-05 04:00 27.83129 77.70536 18146 ft 474 kts 110°
2026-05-05 04:00 27.82153 77.74103 18556 ft 477 kts 106°
2026-05-05 04:00 27.81255 77.77723 18974 ft 481 kts 106°
2026-05-05 04:01 27.80348 77.81358 19384 ft 484 kts 106°
2026-05-05 04:01 27.79426 77.85031 19803 ft 487 kts 106°
2026-05-05 04:01 27.78500 77.88713 20238 ft 489 kts 107°
2026-05-05 04:01 27.77565 77.92420 20672 ft 492 kts 107°
2026-05-05 04:02 27.76625 77.96146 21112 ft 494 kts 107°
2026-05-05 04:02 27.75680 77.99882 21557 ft 496 kts 107°
2026-05-05 04:02 27.74733 78.03625 22016 ft 498 kts 107°
2026-05-05 04:02 27.73780 78.07387 22530 ft 498 kts 107°
2026-05-05 04:03 27.72832 78.11129 23198 ft 495 kts 108°
2026-05-05 04:03 27.71741 78.14796 23770 ft 491 kts 114°
2026-05-05 04:03 27.70459 78.18356 24348 ft 488 kts 114°
2026-05-05 04:03 27.69193 78.21891 24931 ft 485 kts 114°
2026-05-05 04:04 27.67938 78.25410 25559 ft 481 kts 114°
2026-05-05 04:04 27.66715 78.28839 26209 ft 476 kts 114°
2026-05-05 04:04 27.65484 78.32286 26887 ft 472 kts 115°
2026-05-05 04:04 27.64263 78.35702 27580 ft 467 kts 115°
2026-05-05 04:05 27.63040 78.39120 28303 ft 461 kts 115°
2026-05-05 04:05 27.61857 78.42459 29027 ft 456 kts 114°
2026-05-05 04:05 27.60752 78.45732 29784 ft 449 kts 114°
2026-05-05 04:05 27.59667 78.48996 30500 ft 440 kts 114°
2026-05-05 04:06 27.58624 78.52129 31182 ft 432 kts 114°
2026-05-05 04:06 27.57541 78.55363 31919 ft 421 kts 114°
2026-05-05 04:06 27.56518 78.58402 32655 ft 409 kts 114°
2026-05-05 04:06 27.55514 78.61372 33175 ft 404 kts 114°
2026-05-05 04:07 27.54506 78.64339 33353 ft 408 kts 114°
2026-05-05 04:07 27.53501 78.67295 33552 ft 410 kts 114°
2026-05-05 04:07 27.52477 78.70307 33740 ft 413 kts 114°
2026-05-05 04:07 27.51437 78.73365 33928 ft 415 kts 114°
2026-05-05 04:08 27.50419 78.76357 34101 ft 416 kts 114°
2026-05-05 04:08 27.49381 78.79410 34279 ft 418 kts 114°
2026-05-05 04:08 27.48338 78.82473 34430 ft 420 kts 114°
2026-05-05 04:08 27.47283 78.85567 34487 ft 425 kts 114°
2026-05-05 04:09 27.45134 78.91862 34590 ft 436 kts 114°
2026-05-05 04:09 27.42924 78.98326 34693 ft 448 kts 114°
2026-05-05 04:10 27.40657 79.04948 34791 ft 459 kts 114°
2026-05-05 04:10 27.38330 79.11732 34887 ft 470 kts 114°
2026-05-05 04:11 27.35944 79.18675 35002 ft 481 kts 114°
2026-05-05 04:11 27.33499 79.25777 35103 ft 492 kts 114°
2026-05-05 04:12 27.31000 79.33025 35200 ft 502 kts 114°
2026-05-05 04:12 27.28446 79.40413 35295 ft 511 kts 114°
2026-05-05 04:13 27.25848 79.47917 35368 ft 518 kts 114°
2026-05-05 04:13 27.23224 79.55481 35498 ft 521 kts 114°
2026-05-05 04:14 27.21907 79.59274 35608 ft 521 kts 114°
2026-05-05 04:14 27.20589 79.63065 35728 ft 520 kts 114°
2026-05-05 04:14 27.19274 79.66840 35833 ft 521 kts 114°
2026-05-05 04:14 27.17954 79.70627 35934 ft 521 kts 114°
2026-05-05 04:15 27.16630 79.74420 36036 ft 521 kts 114°
2026-05-05 04:15 27.15307 79.78209 36137 ft 521 kts 115°
2026-05-05 04:15 27.12657 79.85783 36342 ft 521 kts 115°
2026-05-05 04:16 27.10005 79.93349 36537 ft 522 kts 115°
2026-05-05 04:16 27.07341 80.00934 36691 ft 523 kts 115°
2026-05-05 04:17 27.04672 80.08519 36878 ft 523 kts 115°
2026-05-05 04:17 27.01994 80.16111 37044 ft 524 kts 115°
2026-05-05 04:18 26.99311 80.23705 37215 ft 524 kts 115°
2026-05-05 04:18 26.96622 80.31298 37367 ft 524 kts 115°
2026-05-05 04:19 26.93933 80.38879 37527 ft 524 kts 115°
2026-05-05 04:19 26.91230 80.46483 37646 ft 525 kts 115°
2026-05-05 04:20 26.88527 80.54072 37796 ft 525 kts 116°
2026-05-05 04:20 26.86133 80.60781 37897 ft 526 kts 116°
2026-05-05 04:21 26.83403 80.68417 38037 ft 526 kts 116°
2026-05-05 04:21 26.80678 80.76026 38151 ft 526 kts 116°
2026-05-05 04:22 26.77951 80.83627 38277 ft 526 kts 116°
2026-05-05 04:22 26.75349 80.91272 38383 ft 529 kts 110°
2026-05-05 04:23 26.73292 80.99178 38516 ft 529 kts 110°
2026-05-05 04:23 26.71228 81.07081 38617 ft 529 kts 110°
2026-05-05 04:24 26.69154 81.14966 38742 ft 528 kts 110°
2026-05-05 04:25 26.66052 81.26699 38900 ft 527 kts 110°
2026-05-05 04:25 26.63972 81.34544 38973 ft 526 kts 110°
2026-05-05 04:26 26.61890 81.42377 38970 ft 525 kts 110°
2026-05-05 04:26 26.59820 81.50146 38975 ft 525 kts 110°
2026-05-05 04:27 26.57717 81.58019 38975 ft 525 kts 110°
2026-05-05 04:27 26.55963 81.64571 38977 ft 526 kts 110°
2026-05-05 04:28 26.53861 81.72404 38974 ft 527 kts 110°
2026-05-05 04:28 26.51753 81.80243 38979 ft 528 kts 110°
2026-05-05 04:29 26.49635 81.88100 38977 ft 529 kts 110°
2026-05-05 04:29 26.47523 81.95919 38980 ft 530 kts 110°
2026-05-05 04:30 26.45378 82.03838 38978 ft 530 kts 110°
2026-05-05 04:30 26.43242 82.11703 38976 ft 530 kts 111°
2026-05-05 04:31 26.41101 82.19571 38973 ft 529 kts 111°
2026-05-05 04:31 26.38959 82.27422 38970 ft 529 kts 111°
2026-05-05 04:32 26.36811 82.35278 38964 ft 529 kts 111°
2026-05-05 04:32 26.34663 82.43116 38976 ft 529 kts 111°
2026-05-05 04:33 26.32510 82.50951 38970 ft 529 kts 111°
2026-05-05 04:33 26.30353 82.58782 38972 ft 529 kts 111°
2026-05-05 04:34 26.28191 82.66615 38971 ft 528 kts 111°
2026-05-05 04:34 26.26040 82.74388 38971 ft 529 kts 111°
2026-05-05 04:35 26.23873 82.82204 38974 ft 529 kts 111°
2026-05-05 04:35 26.21697 82.90031 38968 ft 529 kts 111°
2026-05-05 04:36 26.19503 82.97906 38969 ft 529 kts 111°
2026-05-05 04:36 26.17321 83.05720 38965 ft 529 kts 111°
2026-05-05 04:37 26.15141 83.13524 38964 ft 529 kts 111°
2026-05-05 04:37 26.12986 83.21296 38965 ft 529 kts 111°
2026-05-05 04:38 26.10818 83.29110 38965 ft 528 kts 111°
2026-05-05 04:38 26.08646 83.36914 38962 ft 528 kts 111°
2026-05-05 04:39 26.06472 83.44703 38960 ft 528 kts 112°
2026-05-05 04:39 26.04293 83.52492 38966 ft 527 kts 112°
2026-05-05 04:40 26.02111 83.60272 38955 ft 526 kts 112°
2026-05-05 04:40 25.99915 83.68029 38958 ft 526 kts 112°
2026-05-05 04:41 25.97717 83.75777 38955 ft 526 kts 112°
2026-05-05 04:41 25.95512 83.83532 38955 ft 526 kts 112°
2026-05-05 04:42 25.93308 83.91269 38952 ft 525 kts 112°
2026-05-05 04:42 25.91105 83.98988 38955 ft 525 kts 112°
2026-05-05 04:43 25.88893 84.06717 38947 ft 524 kts 112°
2026-05-05 04:43 25.86682 84.14426 38947 ft 524 kts 112°
2026-05-05 04:44 25.84481 84.22085 38948 ft 524 kts 112°
2026-05-05 04:44 25.82261 84.29789 38945 ft 524 kts 112°
2026-05-05 04:45 25.80036 84.37497 38947 ft 524 kts 112°
2026-05-05 04:45 25.77810 84.45190 38952 ft 524 kts 112°
2026-05-05 04:46 25.75579 84.52885 38951 ft 524 kts 112°
2026-05-05 04:46 25.73351 84.60555 38961 ft 523 kts 112°
2026-05-05 04:47 25.71115 84.68233 38947 ft 522 kts 112°
2026-05-05 04:47 25.68884 84.75879 38950 ft 521 kts 112°
2026-05-05 04:48 25.66856 84.82811 38958 ft 521 kts 112°
2026-05-05 04:48 25.64623 84.90433 38957 ft 520 kts 112°
2026-05-05 04:49 25.62388 84.98042 38957 ft 520 kts 112°
2026-05-05 04:49 25.59968 85.05566 38963 ft 514 kts 120°
2026-05-05 04:50 25.56299 85.12253 38966 ft 503 kts 134°
2026-05-05 04:50 25.51603 85.17889 38963 ft 497 kts 140°
2026-05-05 04:51 25.46805 85.23391 38958 ft 497 kts 140°
2026-05-05 04:51 25.41998 85.28907 38952 ft 497 kts 140°
2026-05-05 04:52 25.37194 85.34407 38947 ft 497 kts 140°
2026-05-05 04:52 25.32387 85.39902 38943 ft 497 kts 140°
2026-05-05 04:53 25.27608 85.45358 38936 ft 498 kts 140°
2026-05-05 04:53 25.22759 85.50888 38937 ft 497 kts 140°
2026-05-05 04:54 25.17944 85.56372 38938 ft 497 kts 140°
2026-05-05 04:54 25.13131 85.61847 38936 ft 497 kts 140°
2026-05-05 04:55 25.08324 85.67308 38935 ft 496 kts 140°
2026-05-05 04:55 25.03561 85.72766 38933 ft 497 kts 139°
2026-05-05 04:56 24.98807 85.78304 38937 ft 497 kts 139°
2026-05-05 04:56 24.94053 85.83823 38947 ft 499 kts 140°
2026-05-05 04:57 24.89247 85.89380 38937 ft 503 kts 140°
2026-05-05 04:57 24.84409 85.94970 38938 ft 503 kts 140°
2026-05-05 04:58 24.79583 86.00541 38937 ft 502 kts 140°
2026-05-05 04:58 24.74750 86.06110 38941 ft 502 kts 140°
2026-05-05 04:59 24.69928 86.11660 38936 ft 502 kts 140°
2026-05-05 04:59 24.65112 86.17196 38942 ft 501 kts 140°
2026-05-05 05:00 24.60286 86.22738 38941 ft 501 kts 140°
2026-05-05 05:00 24.55466 86.28267 38946 ft 500 kts 140°
2026-05-05 05:01 24.50655 86.33778 38944 ft 500 kts 140°
2026-05-05 05:01 24.45845 86.39281 38948 ft 500 kts 140°
2026-05-05 05:02 24.41019 86.44797 38948 ft 500 kts 140°
2026-05-05 05:02 24.36201 86.50296 38948 ft 500 kts 139°
2026-05-05 05:03 24.31388 86.55784 38941 ft 500 kts 140°
2026-05-05 05:03 24.26568 86.61273 38951 ft 500 kts 139°
2026-05-05 05:04 24.21790 86.66738 38949 ft 500 kts 139°
2026-05-05 05:04 24.16954 86.72223 38941 ft 497 kts 143°
2026-05-05 05:05 24.11333 86.76499 38947 ft 483 kts 160°
2026-05-05 05:05 24.05153 86.78964 38954 ft 473 kts 171°
2026-05-05 05:06 23.98807 86.80903 38945 ft 473 kts 170°
2026-05-05 05:06 23.92472 86.82864 38947 ft 473 kts 170°
2026-05-05 05:07 23.86091 86.84834 38951 ft 474 kts 169°
2026-05-05 05:07 23.83057 86.86123 38953 ft 483 kts 158°
2026-05-05 05:07 23.80179 86.88124 38950 ft 493 kts 147°
2026-05-05 05:07 23.77681 86.90730 38954 ft 502 kts 135°
2026-05-05 05:08 23.75623 86.93848 38952 ft 509 kts 126°
2026-05-05 05:08 23.72049 87.00511 38956 ft 510 kts 125°
2026-05-05 05:09 23.68345 87.07082 38657 ft 504 kts 127°
2026-05-05 05:09 23.66459 87.10298 38010 ft 503 kts 128°
2026-05-05 05:09 23.64558 87.13505 37157 ft 504 kts 128°
2026-05-05 05:09 23.62643 87.16724 36257 ft 506 kts 128°
2026-05-05 05:10 23.60723 87.19948 35353 ft 508 kts 128°
2026-05-05 05:10 23.58798 87.23182 34479 ft 509 kts 128°
2026-05-05 05:10 23.56867 87.26428 33527 ft 511 kts 128°
2026-05-05 05:10 23.54904 87.29722 32564 ft 511 kts 128°
2026-05-05 05:11 23.52997 87.32924 31629 ft 510 kts 128°
2026-05-05 05:11 23.51067 87.36160 30696 ft 510 kts 128°
2026-05-05 05:11 23.49146 87.39383 30085 ft 503 kts 128°
2026-05-05 05:11 23.47252 87.42560 29446 ft 496 kts 128°
2026-05-05 05:12 23.45385 87.45687 28757 ft 490 kts 128°
2026-05-05 05:12 23.43539 87.48772 28100 ft 484 kts 128°
2026-05-05 05:12 23.41710 87.51827 27430 ft 479 kts 128°
2026-05-05 05:12 23.39907 87.54836 26807 ft 473 kts 127°
2026-05-05 05:13 23.38062 87.57790 26097 ft 467 kts 131°
2026-05-05 05:13 23.36655 87.59612 25580 ft 464 kts 137°
2026-05-05 05:13 23.34270 87.62048 25192 ft 478 kts 145°
2026-05-05 05:13 23.31572 87.64189 25010 ft 481 kts 149°
2026-05-05 05:14 23.28827 87.66259 24941 ft 479 kts 149°
2026-05-05 05:14 23.26099 87.68334 24935 ft 479 kts 149°
2026-05-05 05:14 23.23364 87.70416 24916 ft 479 kts 149°
2026-05-05 05:14 23.20639 87.72487 24693 ft 478 kts 149°
2026-05-05 05:15 23.17923 87.74548 24250 ft 475 kts 149°
2026-05-05 05:15 23.15255 87.76570 23628 ft 472 kts 149°
2026-05-05 05:15 23.12544 87.78623 22874 ft 465 kts 149°
2026-05-05 05:15 23.09933 87.80599 21989 ft 462 kts 148°
2026-05-05 05:16 23.07310 87.82582 21109 ft 459 kts 148°
2026-05-05 05:16 23.04693 87.84560 20247 ft 456 kts 148°
2026-05-05 05:16 23.02095 87.86522 19410 ft 453 kts 148°
2026-05-05 05:16 22.99512 87.88473 18595 ft 450 kts 148°
2026-05-05 05:17 22.96955 87.90402 17732 ft 447 kts 147°
2026-05-05 05:17 22.94410 87.92329 16823 ft 445 kts 145°
2026-05-05 05:17 22.92141 87.94586 15936 ft 444 kts 132°
2026-05-05 05:17 22.90384 87.97335 15079 ft 442 kts 118°
2026-05-05 05:18 22.89251 88.00407 14245 ft 438 kts 105°
2026-05-05 05:18 22.88764 88.03649 13397 ft 434 kts 94°
2026-05-05 05:18 22.88608 88.06899 12494 ft 429 kts 92°
2026-05-05 05:18 22.88515 88.10099 11946 ft 417 kts 89°
2026-05-05 05:19 22.88670 88.13164 11738 ft 398 kts 85°
2026-05-05 05:19 22.88851 88.16089 11544 ft 380 kts 86°
2026-05-05 05:19 22.88977 88.18899 11385 ft 364 kts 87°
2026-05-05 05:19 22.89078 88.21581 11239 ft 349 kts 87°
2026-05-05 05:20 22.89170 88.24156 11107 ft 335 kts 87°
2026-05-05 05:20 22.89256 88.26587 10990 ft 322 kts 87°
2026-05-05 05:20 22.89412 88.29001 10849 ft 309 kts 81°
2026-05-05 05:20 22.90044 88.31181 10502 ft 303 kts 58°
2026-05-05 05:21 22.91426 88.32869 10107 ft 298 kts 33°
2026-05-05 05:21 22.93290 88.33760 9706 ft 293 kts
2026-05-05 05:21 22.95294 88.33785 9270 ft 288 kts 347°
2026-05-05 05:21 22.97138 88.32990 8862 ft 284 kts 325°
2026-05-05 05:22 22.98535 88.31513 8455 ft 282 kts 302°
2026-05-05 05:22 22.99199 88.29536 8038 ft 281 kts 276°
2026-05-05 05:22 22.98972 88.27451 7612 ft 282 kts 250°
2026-05-05 05:22 22.97897 88.25692 7211 ft 283 kts 223°
2026-05-05 05:23 22.96197 88.24626 6817 ft 284 kts 200°
2026-05-05 05:23 22.94349 88.23969 6425 ft 284 kts 199°
2026-05-05 05:23 22.92440 88.23300 6009 ft 284 kts 199°
2026-05-05 05:23 22.90560 88.22627 5595 ft 284 kts 199°
2026-05-05 05:24 22.88718 88.21959 5189 ft 283 kts 199°
2026-05-05 05:24 22.86826 88.21266 4779 ft 282 kts 199°
2026-05-05 05:24 22.84997 88.20593 4368 ft 282 kts 199°
2026-05-05 05:24 22.83158 88.19919 4188 ft 276 kts 199°
2026-05-05 05:25 22.81343 88.19254 4449 ft 275 kts 199°
2026-05-05 05:25 22.79518 88.18587 5159 ft 277 kts 199°
2026-05-05 05:25 22.77684 88.17919 6050 ft 280 kts 199°
2026-05-05 05:25 22.75825 88.17241 6516 ft 283 kts 199°
2026-05-05 05:26 22.73958 88.16559 6749 ft 284 kts 199°
2026-05-05 05:26 22.72051 88.16006 6874 ft 286 kts 185°
2026-05-05 05:26 22.70108 88.16283 6930 ft 288 kts 159°
2026-05-05 05:26 22.68436 88.17456 6892 ft 283 kts 136°
2026-05-05 05:27 22.67090 88.18965 6814 ft 273 kts 133°
2026-05-05 05:27 22.65828 88.20460 6560 ft 269 kts 132°
2026-05-05 05:27 22.63180 88.23504 5752 ft 284 kts 134°
2026-05-05 05:28 22.61810 88.25031 5374 ft 284 kts 134°
2026-05-05 05:28 22.60424 88.26562 4974 ft 285 kts 134°
2026-05-05 05:28 22.59037 88.28089 4548 ft 285 kts 135°
2026-05-05 05:28 22.57645 88.29619 4026 ft 287 kts 135°
2026-05-05 05:29 22.56223 88.31183 3352 ft 296 kts 135°
2026-05-05 05:29 22.54762 88.32790 2758 ft 300 kts 134°
2026-05-05 05:29 22.53327 88.34368 2566 ft 286 kts 134°
2026-05-05 05:29 22.51982 88.35848 2421 ft 266 kts 134°
2026-05-05 05:30 22.50736 88.37218 2393 ft 259 kts 134°
2026-05-05 05:30 22.49514 88.38603 2391 ft 237 kts 126°
2026-05-05 05:30 22.48932 88.40149 2395 ft 214 kts 93°
2026-05-05 05:30 22.49211 88.41597 2441 ft 190 kts 60°
2026-05-05 05:31 22.50054 88.42591 2392 ft 172 kts 31°
2026-05-05 05:31 22.51147 88.43000 2405 ft 168 kts 10°
2026-05-05 05:31 22.52303 88.43156 2298 ft 167 kts
2026-05-05 05:31 22.53427 88.43281 2088 ft 154 kts
2026-05-05 05:32 22.54434 88.43406 1906 ft 138 kts
2026-05-05 05:32 22.55371 88.43521 1742 ft 137 kts
2026-05-05 05:32 22.56311 88.43636 1574 ft 136 kts
2026-05-05 05:32 22.57252 88.43752 1395 ft 135 kts
2026-05-05 05:33 22.58186 88.43867 1227 ft 134 kts
2026-05-05 05:33 22.59114 88.43981 1054 ft 135 kts
2026-05-05 05:33 22.60043 88.44096 884 ft 134 kts
2026-05-05 05:33 22.60964 88.44209 719 ft 133 kts
2026-05-05 05:34 22.61880 88.44322 546 ft 133 kts
2026-05-05 05:34 22.62803 88.44436 373 ft 134 kts
2026-05-05 05:34 22.63706 88.44546 184 ft 127 kts
2026-05-05 05:34 22.64596 88.44657 35 ft 126 kts
2026-05-05 05:35 22.65297 88.44764 27 ft 66 kts
2026-05-05 05:35 22.65629 88.44789 29 ft 8 kts 306°
2026-05-05 05:35 22.65643 88.44739 29 ft 0 kts 283°
2026-05-05 05:35 22.65644 88.44736 29 ft 2 kts 283°
2026-05-05 05:36 22.65652 88.44697 29 ft 8 kts 279°
2026-05-05 05:36 22.65663 88.44619 28 ft 13 kts 272°
2026-05-05 05:36 22.65643 88.44533 27 ft 0 kts 244°
2026-05-05 05:36 22.65635 88.44515 27 ft 5 kts 244°
2026-05-05 05:37 22.65602 88.44477 27 ft 8 kts 195°
2026-05-05 05:37 22.65532 88.44464 27 ft 12 kts 189°
2026-05-05 05:37 22.65437 88.44448 27 ft 16 kts 187°
2026-05-05 05:37 22.65314 88.44439 30 ft 19 kts 182°
2026-05-05 05:38 22.65179 88.44416 30 ft 18 kts 189°
2026-05-05 05:38 22.65082 88.44405 28 ft 13 kts 178°
2026-05-05 05:38 22.65000 88.44383 26 ft 10 kts 234°
2026-05-05 05:38 22.65009 88.44323 28 ft 10 kts 282°
2026-05-05 05:39 22.65011 88.44237 26 ft 12 kts 245°
2026-05-05 05:39 22.64950 88.44223 26 ft 11 kts 183°
2026-05-05 05:39 22.64864 88.44217 27 ft 14 kts 184°
2026-05-05 05:39 22.64754 88.44207 27 ft 17 kts 189°
2026-05-05 05:40 22.64632 88.44183 27 ft 9 kts 190°
2026-05-05 05:40 22.64578 88.44174 27 ft 0 kts 199°
2026-05-05 05:40 22.64569 88.44165 27 ft 3 kts 229°
2026-05-05 05:40 22.64570 88.44148 27 ft 4 kts 273°
2026-05-05 05:41 22.64571 88.44108 27 ft 6 kts 269°
2026-05-05 05:41 22.64571 88.44090 27 ft 0 kts 269°
2026-05-05 05:41 22.64571 88.44088 27 ft 0 kts 269°
2026-05-05 05:41 22.64571 88.44083 27 ft 0 kts 269°